| time (UTC) | temp F | wind direction | speed MPH | gust MPH | rain 1hr in | rain 24hr in | rain mn in | humidity % | barometer mb |
| 20260904233111 | 82 | 165 | 4.0 | 9.0 | 0.00 | 0.07 | 0.02 | 64 | 1009.4 |
| 20260904231556 | 82 | 203 | 6.0 | 15.0 | 0.00 | 0.07 | 0.02 | 63 | 1008.9 |
| 20260904230049 | 82 | 186 | 5.0 | 14.0 | 0.00 | 0.07 | 0.02 | 65 | 1008.7 |
| 20260904224555 | 83 | 169 | 9.0 | 17.0 | 0.00 | 0.07 | 0.02 | 67 | 1008.7 |
| 20260904223102 | 83 | 168 | 6.0 | 15.0 | 0.00 | 0.07 | 0.02 | 67 | 1008.2 |
| 20260904221549 | 84 | 153 | 9.0 | 18.0 | 0.00 | 0.07 | 0.02 | 63 | 1007.8 |
| 20260904220046 | 83 | 138 | 3.0 | 7.0 | 0.00 | 0.07 | 0.02 | 64 | 1007.8 |
| 20260904214547 | 83 | 90 | 2.0 | 13.0 | 0.00 | 0.07 | 0.02 | 63 | 1007.7 |
| 20260904213047 | 82 | 162 | 3.0 | 7.0 | 0.02 | 0.07 | 0.02 | 68 | 1007.1 |
| 20260904211548 | 80 | 131 | 0.0 | 7.0 | 0.02 | 0.07 | 0.02 | 70 | 1007.6 |
| 20260904210058 | 80 | 159 | 10.0 | 23.0 | 0.02 | 0.07 | 0.02 | 69 | 1007.7 |
| 20260904204544 | 82 | 92 | 13.0 | 28.0 | 0.02 | 0.07 | 0.02 | 67 | 1007.9 |
| 20260904203045 | 100 | 161 | 8.0 | 15.0 | 0.00 | 0.05 | 0.00 | 39 | 1007.0 |
| 20260904201542 | 100 | 200 | 5.0 | 8.0 | 0.00 | 0.05 | 0.00 | 39 | 1007.1 |
| 20260904200039 | 100 | 180 | 5.0 | 9.0 | 0.00 | 0.05 | 0.00 | 38 | 1007.8 |
| 20260904194537 | 99 | 50 | 3.0 | 6.0 | 0.00 | 0.05 | 0.00 | 39 | 1007.9 |
| 20260904193034 | 99 | 105 | 2.0 | 7.0 | 0.00 | 0.05 | 0.00 | 41 | 1008.2 |
| 20260904191531 | 98 | 182 | 3.0 | 10.0 | 0.00 | 0.05 | 0.00 | 41 | 1008.4 |
| 20260904190034 | 97 | 265 | 5.0 | 11.0 | 0.00 | 0.05 | 0.00 | 42 | 1008.6 |
| 20260904184526 | 97 | 236 | 6.0 | 12.0 | 0.00 | 0.05 | 0.00 | 44 | 1008.9 |
| 20260904183026 | 96 | 240 | 4.0 | 9.0 | 0.00 | 0.05 | 0.00 | 46 | 1009.2 |
| 20260904181529 | 96 | 232 | 5.0 | 11.0 | 0.00 | 0.05 | 0.00 | 46 | 1009.3 |
| 20260904180018 | 95 | 153 | 5.0 | 11.0 | 0.00 | 0.05 | 0.00 | 48 | 1009.5 |
| 20260904174512 | 94 | 202 | 7.0 | 11.0 | 0.00 | 0.05 | 0.00 | 48 | 1009.7 |
| 20260904173017 | 93 | 199 | 6.0 | 10.0 | 0.00 | 0.05 | 0.00 | 50 | 1009.8 |
| 20260904171509 | 93 | 175 | 6.0 | 11.0 | 0.00 | 0.05 | 0.00 | 51 | 1010.0 |
| 20260904170001 | 92 | 216 | 5.0 | 12.0 | 0.00 | 0.05 | 0.00 | 52 | 1010.0 |
| 20260904164559 | 91 | 248 | 5.0 | 11.0 | 0.00 | 0.05 | 0.00 | 54 | 1010.2 |
| 20260904163055 | 90 | 201 | 5.0 | 10.0 | 0.00 | 0.05 | 0.00 | 56 | 1010.2 |
| 20260904161600 | 89 | 200 | 4.0 | 12.0 | 0.00 | 0.05 | 0.00 | 57 | 1010.4 |
| 20260904160057 | 88 | 211 | 2.0 | 8.0 | 0.00 | 0.05 | 0.00 | 60 | 1010.4 |
| 20260904154549 | 87 | 188 | 5.0 | 9.0 | 0.00 | 0.05 | 0.00 | 61 | 1010.3 |
| 20260904153044 | 86 | 221 | 5.0 | 9.0 | 0.00 | 0.05 | 0.00 | 63 | 1010.2 |
| 20260904151549 | 85 | 210 | 4.0 | 8.0 | 0.00 | 0.05 | 0.00 | 66 | 1010.2 |
| 20260904150042 | 84 | 199 | 6.0 | 11.0 | 0.00 | 0.05 | 0.00 | 68 | 1010.3 |
| 20260904144556 | 82 | 169 | 4.0 | 10.0 | 0.00 | 0.05 | 0.00 | 71 | 1010.3 |
| 20260904143054 | 81 | 223 | 3.0 | 10.0 | 0.00 | 0.05 | 0.00 | 74 | 1010.3 |
| 20260904141538 | 80 | 225 | 4.0 | 7.0 | 0.00 | 0.05 | 0.00 | 76 | 1010.3 |
| 20260904140039 | 79 | 219 | 7.0 | 12.0 | 0.00 | 0.05 | 0.00 | 78 | 1010.0 |
| 20260904134537 | 78 | 200 | 5.0 | 11.0 | 0.00 | 0.05 | 0.00 | 80 | 1009.9 |
| 20260904133036 | 77 | 214 | 7.0 | 11.0 | 0.00 | 0.05 | 0.00 | 81 | 1009.9 |
| 20260904131532 | 76 | 248 | 4.0 | 10.0 | 0.00 | 0.05 | 0.00 | 81 | 1009.7 |
| 20260904130031 | 76 | 222 | 2.0 | 10.0 | 0.00 | 0.05 | 0.00 | 81 | 1009.4 |
| 20260904124528 | 76 | 227 | 5.0 | 11.0 | 0.00 | 0.05 | 0.00 | 81 | 1009.2 |
| 20260904123027 | 76 | 219 | 5.0 | 10.0 | 0.00 | 0.05 | 0.00 | 80 | 1009.0 |
| 20260904121523 | 76 | 209 | 7.0 | 10.0 | 0.00 | 0.05 | 0.00 | 79 | 1009.0 |
| 20260904120022 | 77 | 195 | 4.0 | 10.0 | 0.00 | 0.05 | 0.00 | 78 | 1008.9 |
| 20260904114518 | 77 | 197 | 4.0 | 10.0 | 0.00 | 0.05 | 0.00 | 77 | 1008.6 |
| 20260904113017 | 77 | 200 | 6.0 | 11.0 | 0.00 | 0.05 | 0.00 | 76 | 1008.5 |
| 20260904111512 | 77 | 205 | 6.0 | 10.0 | 0.00 | 0.05 | 0.00 | 75 | 1008.5 |
| 20260904110011 | 78 | 204 | 6.0 | 15.0 | 0.00 | 0.05 | 0.00 | 74 | 1008.5 |
| 20260904104507 | 78 | 189 | 6.0 | 10.0 | 0.00 | 0.05 | 0.00 | 72 | 1008.4 |
| 20260904103006 | 79 | 198 | 5.0 | 13.0 | 0.00 | 0.05 | 0.00 | 71 | 1008.3 |
| 20260904101502 | 79 | 208 | 5.0 | 14.0 | 0.00 | 0.05 | 0.00 | 69 | 1008.3 |
| 20260904100002 | 79 | 205 | 8.0 | 15.0 | 0.00 | 0.05 | 0.00 | 68 | 1008.1 |
| 20260904094600 | 80 | 215 | 7.0 | 12.0 | 0.00 | 0.05 | 0.00 | 66 | 1008.1 |
| 20260904093103 | 80 | 187 | 7.0 | 13.0 | 0.00 | 0.05 | 0.00 | 65 | 1008.0 |
| 20260904091559 | 81 | 192 | 9.0 | 14.0 | 0.00 | 0.05 | 0.00 | 65 | 1008.1 |
| 20260904090052 | 81 | 193 | 9.0 | 14.0 | 0.00 | 0.05 | 0.00 | 65 | 1007.9 |
| 20260904084551 | 81 | 218 | 8.0 | 17.0 | 0.00 | 0.05 | 0.00 | 64 | 1008.0 |
| 20260904083048 | 81 | 199 | 7.0 | 13.0 | 0.00 | 0.05 | 0.00 | 63 | 1008.0 |
| 20260904081547 | 82 | 180 | 6.0 | 13.0 | 0.00 | 0.05 | 0.00 | 63 | 1008.0 |
| 20260904080047 | 82 | 188 | 7.0 | 14.0 | 0.00 | 0.05 | 0.00 | 62 | 1008.0 |
| 20260904074559 | 82 | 161 | 8.0 | 15.0 | 0.00 | 0.05 | 0.00 | 61 | 1007.8 |
| 20260904073044 | 83 | 200 | 6.0 | 14.0 | 0.00 | 0.05 | 0.00 | 60 | 1008.1 |
| 20260904071600 | 83 | 194 | 6.0 | 11.0 | 0.00 | 0.05 | 0.00 | 60 | 1008.1 |
| 20260904070039 | 83 | 202 | 6.0 | 12.0 | 0.00 | 0.05 | 0.00 | 58 | 1008.3 |
| 20260904064538 | 84 | 163 | 7.0 | 14.0 | 0.00 | 0.05 | 0.00 | 57 | 1008.2 |
| 20260904063044 | 84 | 223 | 5.0 | 13.0 | 0.00 | 0.05 | 0.00 | 55 | 1008.3 |
| 20260904061530 | 84 | 198 | 5.0 | 14.0 | 0.00 | 0.05 | 0.00 | 54 | 1008.1 |
| 20260904060029 | 85 | 185 | 6.0 | 13.0 | 0.00 | 0.05 | 0.00 | 53 | 1008.2 |
| 20260904054533 | 86 | 182 | 7.0 | 13.0 | 0.00 | 0.05 | 0.00 | 51 | 1008.0 |
| 20260904053022 | 86 | 184 | 5.0 | 11.0 | 0.00 | 0.05 | 0.00 | 51 | 1007.9 |
| 20260904051520 | 86 | 190 | 4.0 | 9.0 | 0.00 | 0.05 | 0.00 | 51 | 1007.7 |
| 20260904050120 | 87 | 206 | 6.0 | 11.0 | 0.00 | 0.05 | 0.00 | 50 | 1007.8 |
| 20260904044516 | 87 | 200 | 5.0 | 13.0 | 0.00 | 0.05 | 0.05 | 49 | 1007.7 |
| 20260904043015 | 87 | 169 | 7.0 | 12.0 | 0.00 | 0.05 | 0.05 | 48 | 1007.9 |
| 20260904041523 | 88 | 171 | 5.0 | 12.0 | 0.00 | 0.05 | 0.05 | 49 | 1007.9 |
| 20260904040014 | 88 | 190 | 5.0 | 14.0 | 0.00 | 0.05 | 0.05 | 49 | 1007.8 |
| 20260904034513 | 88 | 198 | 4.0 | 11.0 | 0.00 | 0.05 | 0.05 | 49 | 1007.8 |
| 20260904033012 | 88 | 171 | 5.0 | 10.0 | 0.00 | 0.05 | 0.05 | 48 | 1007.7 |
| 20260904031513 | 89 | 211 | 6.0 | 12.0 | 0.00 | 0.05 | 0.05 | 48 | 1007.6 |
| 20260904030012 | 89 | 169 | 7.0 | 15.0 | 0.00 | 0.05 | 0.05 | 47 | 1007.3 |
| 20260904024514 | 89 | 177 | 4.0 | 10.0 | 0.00 | 0.05 | 0.05 | 48 | 1006.9 |
| 20260904023012 | 90 | 168 | 5.0 | 15.0 | 0.00 | 0.05 | 0.05 | 49 | 1006.8 |
| 20260904021527 | 89 | 155 | 7.0 | 14.0 | 0.05 | 0.05 | 0.05 | 50 | 1006.7 |
| 20260904020010 | 89 | 158 | 5.0 | 15.0 | 0.05 | 0.05 | 0.05 | 51 | 1006.5 |
| 20260904014509 | 87 | 188 | 6.0 | 15.0 | 0.05 | 0.05 | 0.05 | 54 | 1006.4 |
| 20260904013011 | 88 | 187 | 8.0 | 19.0 | 0.04 | 0.04 | 0.04 | 54 | 1006.3 |
| 20260904011508 | 97 | 162 | 6.0 | 14.0 | 0.00 | 0.00 | 0.00 | 35 | 1005.8 |
| 20260904010007 | 98 | 148 | 2.0 | 8.0 | 0.00 | 0.00 | 0.00 | 32 | 1005.7 |
| 20260904004504 | 99 | 134 | 2.0 | 7.0 | 0.00 | 0.00 | 0.00 | 32 | 1005.5 |
| 20260904003006 | 99 | 94 | 3.0 | 8.0 | 0.00 | 0.00 | 0.00 | 31 | 1005.6 |
| 20260904001504 | 99 | 100 | 3.0 | 8.0 | 0.00 | 0.00 | 0.00 | 31 | 1005.5 |
| 20260904000004 | 100 | 86 | 2.0 | 6.0 | 0.00 | 0.00 | 0.00 | 30 | 1005.4 |